Weather History for Stevens Point, WI

Change the Weather History Date:

Saturday, October 1, 2011

  Actual Average Record
Temperature  
Mean Temperature 44 °F -  
Max Temperature 57 °F 65 °F 82 °F (1971)
Min Temperature 30 °F 43 °F 27 °F (1974)
Degree Days  
Heating Degree Days 22    
Moisture  
Dew Point 34 °F    
Average Humidity 75    
Maximum Humidity 100    
Minimum Humidity 38    
Precipitation  
Precipitation 0.00 in - - ()
Sea Level Pressure  
Sea Level Pressure 30.31 in    
Wind  
Wind Speed 2 mph (NNW)    
Max Wind Speed 9 mph    
Max Gust Speed -    
Visibility 10 miles    
Events      
Averages and records for this station are not official NWS values.
T = Trace of Precipitation, MM = Missing Value Source: NWS Daily Summary

Daily Weather History Graph

Daily Weather History Graph

Search for Another Location

Airport:

Trip Planner

Search our weather history database for the weather conditions in past years. The results will help you decide how hot, cold, wet, or windy it might be!

Date:

Astronomy

Oct. 01, 2011 Rise Set
Actual Time 6:55 AM CDT 6:39 PM CDT
Civil Twilight 6:26 AM CDT 7:08 PM CDT
Nautical Twilight 5:52 AM CDT 7:41 PM CDT
Astronomical Twilight 5:18 AM CDT 8:16 PM CDT
Moon 12:15 PM CDT (10/1) 9:22 PM CDT (10/1)
Length of Visible Light 12h 41m
Length of Day
11h 43m
Waxing Crescent, 24% of the Moon is Illuminated
Oct 1
Waxing Crescent
Oct 3
First Quarter
Oct 11
Full
Oct 19
Last Quarter
Oct 26
New

Hourly Weather History & Observations

Time (CDT) Temp. Windchill Dew Point Humidity Pressure Visibility Wind Dir Wind Speed Gust Speed Precip Events Conditions
12:15 AM 35.6 °F 32.8 °F 33.8 °F 93% 30.27 in 10.0 mi North 3.5 mph - N/A   Clear
12:35 AM 35.6 °F - 33.8 °F 93% 30.27 in 10.0 mi Calm Calm - N/A   Clear
12:55 AM 35.6 °F - 33.8 °F 93% 30.28 in 10.0 mi Calm Calm - N/A   Clear
1:15 AM 35.6 °F 32.8 °F 33.8 °F 93% 30.28 in 10.0 mi NW 3.5 mph - N/A   Clear
1:35 AM 33.8 °F 29.6 °F 33.8 °F 100% 30.28 in 10.0 mi NNW 4.6 mph - N/A   Clear
1:55 AM 35.6 °F - 33.8 °F 93% 30.28 in 10.0 mi Calm Calm - N/A   Clear
2:15 AM 33.8 °F 30.8 °F 32.0 °F 93% 30.29 in 10.0 mi NNW 3.5 mph - N/A   Clear
2:35 AM 33.8 °F - 32.0 °F 93% 30.29 in 10.0 mi Calm Calm - N/A   Clear
3:15 AM 33.8 °F - 30.2 °F 87% 30.29 in 10.0 mi Calm Calm - N/A   Clear
3:35 AM 32.0 °F - 30.2 °F 93% 30.29 in 10.0 mi Calm Calm - N/A   Clear
3:55 AM 32.0 °F - 30.2 °F 93% 30.29 in 10.0 mi Calm Calm - N/A   Clear
4:15 AM 30.2 °F - 30.2 °F 100% 30.29 in 10.0 mi Calm Calm - N/A   Clear
4:35 AM 30.2 °F - 30.2 °F 100% 30.30 in 10.0 mi Calm Calm - N/A   Clear
4:55 AM 32.0 °F - 30.2 °F 93% 30.30 in 10.0 mi Calm Calm - N/A   Clear
5:15 AM 30.2 °F - 30.2 °F 100% 30.30 in 10.0 mi Calm Calm - N/A   Clear
5:35 AM 30.2 °F - 30.2 °F 100% 30.32 in 10.0 mi Calm Calm - N/A   Clear
5:55 AM 30.2 °F - 30.2 °F 100% 30.32 in 10.0 mi Calm Calm - N/A   Clear
6:15 AM 30.2 °F - 30.2 °F 100% 30.33 in 10.0 mi Calm Calm - N/A   Clear
6:35 AM 30.2 °F - 30.2 °F 100% 30.32 in 10.0 mi Calm Calm - N/A   Clear
7:15 AM 30.2 °F - 30.2 °F 100% 30.34 in 10.0 mi Calm Calm - N/A   Clear
7:35 AM 32.0 °F - 30.2 °F 93% 30.35 in 10.0 mi Calm Calm - N/A   Clear
7:55 AM 33.8 °F - 32.0 °F 93% 30.36 in 10.0 mi Calm Calm - N/A   Clear
8:15 AM 35.6 °F 31.7 °F 33.8 °F 93% 30.36 in 10.0 mi North 4.6 mph - N/A   Clear
8:35 AM 37.4 °F 34.9 °F 33.8 °F 87% 30.36 in 10.0 mi NNE 3.5 mph - N/A   Clear
8:55 AM 39.2 °F 35.9 °F 35.6 °F 87% 30.36 in 10.0 mi NNE 4.6 mph - N/A   Clear
9:15 AM 41.0 °F 37.1 °F 35.6 °F 81% 30.36 in 10.0 mi NE 5.8 mph - N/A   Clear
9:35 AM 42.8 °F 39.3 °F 35.6 °F 76% 30.37 in 10.0 mi NE 5.8 mph - N/A   Clear
9:55 AM 44.6 °F 39.7 °F 35.6 °F 71% 30.37 in 10.0 mi NE 9.2 mph - N/A   Clear
10:15 AM 44.6 °F 40.2 °F 35.6 °F 71% 30.38 in 10.0 mi ENE 8.1 mph - N/A   Clear
10:35 AM 46.4 °F 44.3 °F 35.6 °F 66% 30.38 in 10.0 mi NNE 4.6 mph - N/A   Clear
10:55 AM 46.4 °F 44.3 °F 35.6 °F 66% 30.38 in 10.0 mi NE 4.6 mph - N/A   Clear
11:15 AM 48.2 °F - 35.6 °F 62% 30.38 in 10.0 mi Calm Calm - N/A   Clear
11:35 AM 48.2 °F - 35.6 °F 62% 30.38 in 10.0 mi Calm Calm - N/A   Clear
12:15 PM 51.8 °F - 33.8 °F 50% 30.37 in 10.0 mi Calm Calm - N/A   Clear
12:35 PM 51.8 °F - 32.0 °F 47% 30.37 in 10.0 mi Calm Calm - N/A   Clear
1:15 PM 53.6 °F - 33.8 °F 47% 30.35 in 10.0 mi Calm Calm - N/A   Clear
1:35 PM 53.6 °F - 33.8 °F 47% 30.34 in 10.0 mi West 4.6 mph - N/A   Clear
1:55 PM 53.6 °F - 35.6 °F 51% 30.33 in 10.0 mi Calm Calm - N/A   Clear
2:15 PM 55.4 °F - 35.6 °F 47% 30.32 in 10.0 mi SSE 3.5 mph - N/A   Clear
2:35 PM 55.4 °F - 35.6 °F 47% 30.31 in 10.0 mi ESE 4.6 mph - N/A   Clear
2:55 PM 55.4 °F - 35.6 °F 47% 30.31 in 10.0 mi South 3.5 mph - N/A   Clear
3:15 PM 55.4 °F - 33.8 °F 44% 30.30 in 10.0 mi Calm Calm - N/A   Clear
3:35 PM 57.2 °F - 33.8 °F 41% 30.31 in 10.0 mi Calm Calm - N/A   Clear
3:55 PM 57.2 °F - 35.6 °F 44% 30.30 in 10.0 mi SW 3.5 mph - N/A   Clear
4:15 PM 57.2 °F - 33.8 °F 41% 30.30 in 10.0 mi West 4.6 mph - N/A   Clear
4:35 PM 57.2 °F - 35.6 °F 44% 30.29 in 10.0 mi WSW 6.9 mph - N/A   Clear
4:55 PM 57.2 °F - 35.6 °F 44% 30.29 in 10.0 mi West 3.5 mph - N/A   Clear
5:15 PM 57.2 °F - 33.8 °F 41% 30.29 in 10.0 mi WSW 3.5 mph - N/A   Clear
5:35 PM 57.2 °F - 33.8 °F 41% 30.29 in 10.0 mi WSW 3.5 mph - N/A   Clear
5:55 PM 57.2 °F - 32.0 °F 38% 30.28 in 10.0 mi WSW 3.5 mph - N/A   Clear
6:35 PM 53.6 °F - 37.4 °F 54% 30.28 in 10.0 mi Calm Calm - N/A   Clear
6:55 PM 48.2 °F - 39.2 °F 71% 30.28 in 10.0 mi Calm Calm - N/A   Clear
7:15 PM 46.4 °F - 39.2 °F 76% 30.28 in 10.0 mi Calm Calm - N/A   Clear
7:35 PM 46.4 °F - 39.2 °F 76% 30.28 in 10.0 mi Calm Calm - N/A   Clear
7:55 PM 42.8 °F - 37.4 °F 81% 30.28 in 10.0 mi Calm Calm - N/A   Clear
8:15 PM 42.8 °F - 37.4 °F 81% 30.27 in 10.0 mi Calm Calm - N/A   Clear
8:35 PM 41.0 °F - 37.4 °F 87% 30.27 in 10.0 mi Calm Calm - N/A   Clear
8:55 PM 39.2 °F - 37.4 °F 93% 30.27 in 10.0 mi Calm Calm - N/A   Clear
9:15 PM 39.2 °F - 37.4 °F 93% 30.27 in 10.0 mi Calm Calm - N/A   Clear
9:35 PM 39.2 °F - 35.6 °F 87% 30.27 in 10.0 mi Calm Calm - N/A   Clear
9:55 PM 37.4 °F - 35.6 °F 93% 30.27 in 10.0 mi Calm Calm - N/A   Clear
10:15 PM 37.4 °F - 35.6 °F 93% 30.27 in 10.0 mi Calm Calm - N/A   Clear
10:35 PM 37.4 °F - 35.6 °F 93% 30.27 in 10.0 mi Calm Calm - N/A   Clear
10:55 PM 35.6 °F - 33.8 °F 93% 30.27 in 10.0 mi Calm Calm - N/A   Clear
11:15 PM 35.6 °F - 33.8 °F 93% 30.27 in 10.0 mi Calm Calm - N/A   Clear
11:35 PM 35.6 °F - 33.8 °F 93% 30.27 in 10.0 mi Calm Calm - N/A   Clear
11:55 PM 33.8 °F - 32.0 °F 93% 30.28 in 10.0 mi Calm Calm - N/A   Clear